This is the latest recevied weather packets stored in our database for station/object W4OTS. If no packets are shown the sender has not sent any weather packets the latest 10 day(s).
| Time | Temp. | Humidity | Pressure | Rain* | Wind** | Luminosity | Snow |
|---|---|---|---|---|---|---|---|
| 1777402930 | 15.56° C | 93% | 1021.2 hPa | 0 mm | - | 111 W/m² | - |
| 1777402626 | 15.56° C | 92% | 1021.5 hPa | 0 mm | - | 142 W/m² | - |
| 1777402324 | 15.56° C | 93% | 1021.5 hPa | 0 mm | - | 228 W/m² | - |
| 1777402023 | 15.56° C | 95% | 1021.4 hPa | 0 mm | - | 267 W/m² | - |
| 1777401723 | 15° C | 94% | 1021.8 hPa | 0 mm | - | 103 W/m² | - |
| 1777401419 | 15.56° C | 94% | 1021.8 hPa | 0 mm | - | 191 W/m² | - |
| 1777401114 | 15.56° C | 95% | 1021.7 hPa | 0 mm | - | 139 W/m² | - |
| 1777400810 | 15° C | 95% | 1021.6 hPa | 0 mm | - | 278 W/m² | - |
| 1777400507 | 14.44° C | 96% | 1021.9 hPa | 0 mm | - | 140 W/m² | - |
| 1777400204 | 14.44° C | 96% | 1021.8 hPa | 0 mm | - | 96 W/m² | - |
| 1777399899 | 14.44° C | 96% | 1022.1 hPa | 0 mm | - | 97 W/m² | - |
| 1777399592 | 15° C | 97% | 1022.2 hPa | 0 mm | - | 85 W/m² | - |
| 1777399288 | 15° C | 96% | 1021.9 hPa | 0 mm | - | 114 W/m² | - |
| 1777398987 | 14.44° C | 96% | 1022.2 hPa | 0 mm | - | 225 W/m² | - |
| 1777398683 | 13.89° C | 97% | 1022.3 hPa | 0 mm | - | 154 W/m² | - |
| 1777398380 | 13.89° C | 98% | 1022.4 hPa | 0 mm | - | 104 W/m² | - |
| 1777398076 | 13.89° C | 98% | 1022.6 hPa | 0 mm | - | 69 W/m² | - |
| 1777397774 | 13.89° C | 98% | 1022.3 hPa | 0 mm | - | 86 W/m² | - |
| 1777397468 | 13.89° C | 97% | 1022.6 hPa | 0 mm | - | 93 W/m² | - |
| 1777397165 | 13.89° C | 97% | 1022.6 hPa | 0 mm | - | 59 W/m² | - |
| 1777396863 | 13.89° C | 98% | 1022.7 hPa | 0 mm | - | 109 W/m² | - |
| 1777396558 | 14.44° C | 97% | 1022.8 hPa | 0 mm | - | 104 W/m² | - |
| 1777396256 | 14.44° C | 97% | 1022.7 hPa | 0 mm | - | 195 W/m² | - |
| 1777395951 | 13.89° C | 97% | 1022.8 hPa | 0 mm | - | 214 W/m² | - |
| 1777395646 | 13.89° C | 98% | 1022.7 hPa | 0 mm | - | 232 W/m² | - |
* Rain latest hour (hover to see other rain measurements)
** Current wind speed in m/s (hover to see current wind gust speed)